Quillayute, WA

4:46 AM PST on February 24, 2018 (GMT -0800)
Quillayute

Weather History for KUIL - April, 2012

Change the Weather History Date:

Wednesday, April 25, 2012

  Actual Average Record
Temperature  
Mean Temperature 51 °F 48 °F  
Max Temperature 53 °F 56 °F 75 °F (1971)
Min Temperature 48 °F 39 °F 26 °F (1999)
Degree Days  
Heating Degree Days 14 17  
Month to date heating degree days 465  
Since 1 July heating degree days 4958  
Cooling Degree Days 0 0  
Month to date cooling degree days 0  
Year to date cooling degree days 0  
Moisture  
Dew Point 50 °F    
Average Humidity 98    
Maximum Humidity 100    
Minimum Humidity 93    
Precipitation  
Precipitation 2.33 in 0.24 in 2.33 in (2012)
Month to date precipitation 6.79  
Year to date precipitation 42.58  
Sea Level Pressure  
Sea Level Pressure 29.66 in    
Wind  
Wind Speed 9 mph (South)    
Max Wind Speed 21 mph    
Max Gust Speed 36 mph    
Visibility 4 miles    
Events Rain    
T = Trace of Precipitation, MM = Missing Value Source: NWS Daily Summary

Daily Weather History Graph

Daily Weather History Graph

Search for Another Location

Airport or City:

Trip Planner

Search our weather history database for the weather conditions in past years. The results will help you decide how hot, cold, wet, or windy it might be!

Date:

Astronomy

Apr. 25, 2012 Rise Set
Actual Time 6:09 AM PDT 8:23 PM PDT
Civil Twilight 5:35 AM PDT 8:57 PM PDT
Nautical Twilight 4:53 AM PDT 9:40 PM PDT
Astronomical Twilight 4:05 AM PDT 10:28 PM PDT
Moon 8:48 AM PDT (4/25) No Moon Set
Length of Visible Light 15h 22m
Length of Day
14h 14m
Waxing Crescent, 17% of the Moon is Illuminated
Apr 25
Waxing Crescent
Apr 29
First Quarter
May 5
Full
May 12
Last Quarter
May 20
New

Hourly Weather History & Observations

Time (PDT) Temp. Dew Point Humidity Pressure Visibility Wind Dir Wind Speed Gust Speed Precip Events Conditions
12:25 AM 51.8 °F 51.8 °F 100% 29.74 in 4.0 mi South 17.3 mph 26.5 mph 0.03 in Rain Light Rain
12:41 AM 51.8 °F 51.8 °F 100% 29.74 in 2.5 mi South 12.7 mph 23.0 mph 0.05 in Rain Rain
12:53 AM 52.0 °F 51.1 °F 97% 29.74 in 5.0 mi South 17.3 mph 26.5 mph 0.08 in Rain Light Rain
1:53 AM 52.0 °F 52.0 °F 100% 29.74 in 5.0 mi South 12.7 mph 26.5 mph 0.01 in Rain Light Rain
2:53 AM 52.0 °F 52.0 °F 100% 29.73 in 4.0 mi South 13.8 mph 24.2 mph 0.04 in Rain Light Rain
3:31 AM 51.8 °F 51.8 °F 100% 29.73 in 3.0 mi South 17.3 mph 31.1 mph 0.05 in Rain Light Rain
3:53 AM 51.1 °F 51.1 °F 100% 29.73 in 5.0 mi South 12.7 mph 31.1 mph 0.08 in Rain Light Rain
4:53 AM 51.1 °F 51.1 °F 100% 29.73 in 4.0 mi South 12.7 mph 24.2 mph 0.13 in Rain Light Rain
5:40 AM 51.8 °F 51.8 °F 100% 29.72 in 5.0 mi SSE 12.7 mph 25.3 mph 0.06 in Rain Light Rain
5:53 AM 51.1 °F 51.1 °F 100% 29.71 in 5.0 mi SSE 9.2 mph 24.2 mph 0.08 in Rain Light Rain
6:05 AM 51.8 °F 51.8 °F 100% 29.71 in 6.0 mi SSE 11.5 mph 21.9 mph 0.02 in Rain Light Rain
6:13 AM 51.8 °F 51.8 °F 100% 29.70 in 6.0 mi SSE 12.7 mph 23.0 mph 0.03 in Rain Light Rain
6:23 AM 51.8 °F 51.8 °F 100% 29.70 in 5.0 mi Variable 6.9 mph 19.6 mph 0.04 in Rain Light Rain
6:46 AM 51.8 °F 51.8 °F 100% 29.71 in 4.0 mi South 8.1 mph 20.7 mph 0.07 in Rain Light Rain
6:53 AM 51.1 °F 51.1 °F 100% 29.71 in 4.0 mi South 10.4 mph 20.7 mph 0.09 in Rain Rain
7:00 AM 51.8 °F 51.8 °F 100% 29.70 in 3.0 mi SSE 11.5 mph 20.7 mph 0.01 in Rain Light Rain
7:18 AM 51.8 °F 51.8 °F 100% 29.70 in 2.5 mi SSE 8.1 mph 23.0 mph 0.06 in Rain Rain
7:28 AM 51.8 °F 51.8 °F 100% 29.69 in 4.0 mi SSE 8.1 mph - 0.08 in Rain Light Rain
7:41 AM 50.0 °F 50.0 °F 100% 29.69 in 2.5 mi SSE 8.1 mph 16.1 mph 0.11 in Rain Rain
7:44 AM 50.0 °F 50.0 °F 100% 29.69 in 3.0 mi SE 10.4 mph 20.7 mph 0.12 in Rain Light Rain
7:53 AM 50.0 °F 50.0 °F 100% 29.69 in 3.0 mi Variable 6.9 mph 20.7 mph 0.13 in Rain Light Rain
8:19 AM 50.0 °F 48.2 °F 94% 29.68 in 3.0 mi SSE 9.2 mph 19.6 mph 0.04 in Rain Light Rain
8:33 AM 51.8 °F 50.0 °F 94% 29.67 in 4.0 mi SSE 12.7 mph 24.2 mph 0.06 in Rain Light Rain
8:53 AM 51.1 °F 50.0 °F 96% 29.68 in 4.0 mi SSE 8.1 mph 17.3 mph 0.09 in Rain Light Rain
9:07 AM 51.8 °F 51.8 °F 100% 29.67 in 4.0 mi SSE 8.1 mph 16.1 mph 0.02 in Rain Light Rain
9:17 AM 51.8 °F 51.8 °F 100% 29.67 in 6.0 mi Variable 6.9 mph 17.3 mph 0.03 in Rain Light Rain
9:51 AM 51.8 °F 51.8 °F 100% 29.67 in 4.0 mi South 9.2 mph - 0.07 in Rain Light Rain
9:53 AM 51.1 °F 51.1 °F 100% 29.67 in 4.0 mi Variable 5.8 mph - 0.07 in Rain Light Rain
10:00 AM - - N/A% - - North - - N/A   Unknown
10:12 AM 51.8 °F 50.0 °F 94% 29.67 in 4.0 mi South 8.1 mph - 0.04 in Rain Light Rain
10:33 AM 51.8 °F 50.0 °F 94% 29.67 in 4.0 mi Variable 5.8 mph - 0.07 in Rain Light Rain
10:36 AM 51.8 °F 50.0 °F 94% 29.67 in 4.0 mi SSE 6.9 mph - 0.08 in Rain Light Rain
10:53 AM 52.0 °F 51.1 °F 97% 29.68 in 4.0 mi South 8.1 mph - 0.10 in Rain Light Rain
11:05 AM 51.8 °F 51.8 °F 100% 29.68 in 2.0 mi South 9.2 mph 23.0 mph 0.04 in Rain Rain
11:13 AM 51.8 °F 50.0 °F 94% 29.68 in 1.8 mi South 9.2 mph 18.4 mph 0.08 in Rain Rain
11:21 AM 51.8 °F 51.8 °F 100% 29.67 in 1.8 mi South 10.4 mph 21.9 mph 0.12 in Rain Rain
11:28 AM 51.8 °F 51.8 °F 100% 29.67 in 3.0 mi South 10.4 mph 21.9 mph 0.13 in Rain Light Rain
11:37 AM 51.8 °F 51.8 °F 100% 29.67 in 4.0 mi South 8.1 mph 20.7 mph 0.14 in Rain Light Rain
11:53 AM 52.0 °F 51.1 °F 97% 29.67 in 3.0 mi South 8.1 mph 19.6 mph 0.18 in Rain Light Rain
11:56 AM 51.8 °F 51.8 °F 100% 29.67 in 2.5 mi South 9.2 mph - 0.01 in Rain Rain
12:00 PM - - N/A% - - North - - N/A   Unknown
12:03 PM 51.8 °F 51.8 °F 100% 29.66 in 2.5 mi South 8.1 mph 17.3 mph 0.02 in Rain Light Rain
12:23 PM 51.8 °F 51.8 °F 100% 29.66 in 2.5 mi South 10.4 mph 20.7 mph 0.07 in Rain Rain
12:53 PM 52.0 °F 51.1 °F 97% 29.66 in 2.0 mi South 15.0 mph 28.8 mph 0.14 in Rain Light Rain
1:13 PM 51.8 °F 51.8 °F 100% 29.66 in 3.0 mi South 12.7 mph 24.2 mph 0.03 in Rain Light Rain
1:25 PM 51.8 °F 51.8 °F 100% 29.65 in 2.5 mi South 10.4 mph 19.6 mph 0.06 in Rain Rain
1:37 PM 51.8 °F 51.8 °F 100% 29.65 in 1.8 mi South 13.8 mph 27.6 mph 0.10 in Rain Rain
1:53 PM 52.0 °F 52.0 °F 100% 29.65 in 2.0 mi South 11.5 mph 23.0 mph 0.16 in Rain Rain
2:09 PM 51.8 °F 51.8 °F 100% 29.64 in 1.8 mi South 15.0 mph 26.5 mph 0.04 in Rain Rain
2:16 PM 51.8 °F 51.8 °F 100% 29.64 in 1.5 mi South 12.7 mph 24.2 mph 0.07 in Rain Rain
2:24 PM 53.6 °F 53.6 °F 100% 29.64 in 3.0 mi South 9.2 mph 25.3 mph 0.09 in Rain Light Rain
2:30 PM 51.8 °F 51.8 °F 100% 29.64 in 1.8 mi South 12.7 mph 24.2 mph 0.10 in Rain Rain
2:48 PM 51.8 °F 51.8 °F 100% 29.64 in 2.5 mi South 13.8 mph 21.9 mph 0.16 in Rain Light Rain
2:53 PM 52.0 °F 52.0 °F 100% 29.64 in 3.0 mi South 13.8 mph 23.0 mph 0.16 in Rain Light Rain
3:43 PM 51.8 °F 51.8 °F 100% 29.63 in 2.0 mi South 13.8 mph 23.0 mph 0.10 in Rain Rain
3:53 PM 52.0 °F 52.0 °F 100% 29.62 in 2.5 mi SSW 12.7 mph 24.2 mph 0.12 in Rain Light Rain
4:26 PM 50.0 °F 48.2 °F 94% 29.62 in 2.5 mi South 8.1 mph - 0.08 in Rain Light Rain
4:29 PM 50.0 °F 50.0 °F 100% 29.62 in 3.0 mi Variable 6.9 mph - 0.08 in Rain Light Rain
4:46 PM 50.0 °F 48.2 °F 94% 29.62 in 4.0 mi Variable 6.9 mph - 0.11 in Rain Light Rain
4:53 PM 50.0 °F 48.9 °F 96% 29.62 in 4.0 mi SSW 6.9 mph - 0.12 in Rain Light Rain
5:02 PM 50.0 °F 48.2 °F 94% 29.63 in 3.0 mi South 8.1 mph - 0.01 in Rain Light Rain
5:53 PM 50.0 °F 48.9 °F 96% 29.62 in 4.0 mi South 8.1 mph 16.1 mph 0.09 in Rain Light Rain
6:53 PM 50.0 °F 48.9 °F 96% 29.61 in 4.0 mi Variable 6.9 mph 19.6 mph 0.07 in Rain Light Rain
7:21 PM 50.0 °F 48.2 °F 94% 29.59 in 6.0 mi South 8.1 mph - 0.01 in Rain Light Rain
7:32 PM 50.0 °F 48.2 °F 94% 29.60 in 5.0 mi South 5.8 mph - 0.02 in Rain Light Rain
7:53 PM 48.9 °F 48.0 °F 97% 29.59 in 7.0 mi SSE 8.1 mph 18.4 mph 0.03 in Rain Light Rain
8:16 PM 48.2 °F 48.2 °F 100% 29.59 in 2.0 mi South 8.1 mph 16.1 mph 0.01 in Rain Light Rain
8:22 PM 48.2 °F 48.2 °F 100% 29.59 in 3.0 mi South 8.1 mph 20.7 mph 0.02 in Rain Light Rain
8:53 PM 48.9 °F 48.0 °F 97% 29.60 in 5.0 mi SSE 8.1 mph - 0.04 in Rain Light Rain
9:53 PM 48.9 °F 48.0 °F 97% 29.60 in 5.0 mi SSE 8.1 mph 16.1 mph 0.04 in Rain Light Rain
10:00 PM - - N/A% - - North - - N/A   Unknown
10:21 PM 48.2 °F 48.2 °F 100% 29.61 in 4.0 mi SSW 6.9 mph - 0.08 in Rain Rain
10:23 PM 48.2 °F 48.2 °F 100% 29.61 in 4.0 mi SSW 9.2 mph - 0.08 in Rain Rain
10:34 PM 48.2 °F 48.2 °F 100% 29.61 in 2.5 mi SSW 5.8 mph - 0.14 in Rain Heavy Rain
10:40 PM 48.2 °F 48.2 °F 100% 29.61 in 3.0 mi SSW 6.9 mph - 0.17 in Rain Rain
10:53 PM 48.9 °F 48.0 °F 97% 29.61 in 2.5 mi SSW 5.8 mph - 0.22 in Rain Rain
11:09 PM 48.2 °F 48.2 °F 100% 29.61 in 4.0 mi SSW 6.9 mph - 0.08 in Rain Light Rain
11:43 PM 48.2 °F 46.4 °F 93% 29.61 in 7.0 mi SSW 6.9 mph - 0.12 in Rain Light Rain
11:53 PM 48.0 °F 46.9 °F 96% 29.62 in 7.0 mi SSW 5.8 mph - 0.13 in Rain Light Rain